Content
SEND FEEDBACK

Daily
Averages
Monthly
Summary
United States of America

GRANBY, COLORADO


Home > North America > United States > Colorado
Elevation: 8210 feet     Latitude: 40 06N     Longitude: 105 56W

WEATHER
 
SELECT A DAY
Number of Records: 260,432;   Date Range: 8/13/03 - 7/23/14
 
SHARE

PRINT THIS DATA

[ ← Previous Day ]
WEATHER ALMANAC - APRIL 28, 2014
[ Next Day → ]
[ °C ]   °F
Weather ElementAverageHighLow
Temperature33.4 °F41 °F (4:16 pm)30.2 °F (1:36 am)
Dewpoint17.9 °F26.6 °F (12:36 am)3.2 °F (4:16 pm)
Humidity55.4 %86 % (1:36 am)21 % (4:16 pm)
Barometer29.92 in30.12 in (11:36 pm)29.80 in (3:16 am)
Wind Speed10.1 mph24.2 mph (2:16 pm)
Wind Gust36.8 mph (4:36 pm)
Weather ElementAverage
Visibility9.4 mi
Wind DirectionWNW (275.9 °)

Weather ElementTotal
Precipitation---
Heating Degree Days29.4 (Base 65)
Averaged from 68 records on April 28, 2014
WEATHER CONDITIONS BREAKOUT
WIND DIRECTION BREAKOUT
WEATHER BY HOUR - APRIL 28, 2014
[ °C ]   °F
Local TimeTemperatureDewpointHumidityBarometerVisibilityWind DirectionWind SpeedGust SpeedPrecipitationEventsConditions
12:36 AM32.0 °F26.6 °F80 %29.83 in7.0 miWNW (300°)4.6 mphSnowLight Snow
12:56 AM32.0 °F26.6 °F80 %29.83 in4.0 miWest (280°)6.9 mphSnowLight Snow
1:16 AM32.0 °F26.6 °F80 %29.82 in4.0 miWNW (290°)4.6 mphSnowLight Snow
1:36 AM30.2 °F26.6 °F86 %29.82 in7.0 miWest (270°)10.4 mphSnowLight Snow
2:15 AM32.0 °F24.8 °F75 %29.81 in10.0 miWNW (290°)3.5 mphOvercast
2:36 AM32.0 °F23.0 °F69 %29.81 in10.0 miWNW (300°)3.5 mphOvercast
2:56 AM32.0 °F26.6 °F80 %29.81 in10.0 miWest (260°)5.8 mphSnowLight Snow
3:16 AM32.0 °F26.6 °F80 %29.80 in10.0 miWest (260°)5.8 mphSnowLight Snow
3:36 AM32.0 °F24.8 °F75 %29.80 in10.0 miWest (260°)8.1 mphOvercast
3:56 AM32.0 °F23.0 °F69 %29.80 in10.0 miWest (260°)8.1 mphOvercast
4:16 AM32.0 °F23.0 °F69 %29.81 in10.0 miWest (270°)3.5 mphOvercast
4:36 AM32.0 °F21.2 °F64 %29.81 in10.0 miWNW (290°)4.6 mphOvercast
4:56 AM32.0 °F21.2 °F64 %29.81 in10.0 miWest (280°)5.8 mphOvercast
5:16 AM32.0 °F19.4 °F60 %29.82 in10.0 miWNW (290°)8.1 mphOvercast
5:36 AM32.0 °F19.4 °F60 %29.82 in10.0 miWNW (290°)6.9 mphOvercast
5:56 AM32.0 °F19.4 °F60 %29.83 in10.0 miNW (310°)3.5 mphOvercast
6:16 AM32.0 °F19.4 °F60 %29.84 in10.0 miWest (270°)6.9 mphOvercast
6:36 AM32.0 °F19.4 °F60 %29.85 in10.0 miNW (310°)6.9 mphOvercast
6:56 AM32.0 °F21.2 °F64 %29.86 in7.0 miWNW (300°)3.5 mphSnowLight Snow
7:16 AM32.0 °F17.6 °F55 %29.86 in10.0 miNW (320°)8.1 mphOvercast
7:36 AM32.0 °F17.6 °F55 %29.86 in10.0 miNW (320°)10.4 mphOvercast
7:56 AM32.0 °F17.6 °F55 %29.87 in10.0 miNW (320°)12.7 mph16.1 mphOvercast
8:16 AM32.0 °F19.4 °F60 %29.87 in10.0 miNW (310°)12.7 mph19.6 mphOvercast
8:36 AM33.8 °F21.2 °F60 %29.87 in10.0 miWest (260°)9.2 mphOvercast
8:56 AM32.0 °F21.2 °F64 %29.87 in10.0 miWest (260°)8.1 mph16.1 mphOvercast
9:16 AM33.8 °F19.4 °F56 %29.87 in10.0 miWNW (290°)10.4 mph18.4 mphMostly Cloudy
9:36 AM33.8 °F17.6 °F52 %29.88 in10.0 miWNW (290°)12.7 mphOvercast
9:56 AM33.8 °F14.0 °F44 %29.88 in10.0 miNW (310°)15.0 mph23.0 mphMostly Cloudy
10:16 AM35.6 °F17.6 °F48 %29.88 in10.0 miNW (320°)16.1 mph23.0 mphMostly Cloudy
10:36 AM33.8 °F12.2 °F41 %29.88 in10.0 miNW (310°)11.5 mph26.5 mphScattered Clouds
10:55 AM33.8 °F14.0 °F44 %29.88 in10.0 miNW (310°)13.8 mph23.0 mphMostly Cloudy
11:16 AM35.6 °F14.0 °F41 %29.89 in10.0 miNNW (330°)17.3 mph25.3 mphMostly Cloudy
11:35 AM37.4 °F10.4 °F33 %29.88 in10.0 miNW (310°)16.1 mph26.5 mphScattered Clouds
11:56 AM33.8 °F21.2 °F60 %29.89 in7.0 miWest (270°)12.7 mph18.4 mphMostly Cloudy
12:16 PM35.6 °F19.4 °F52 %29.88 in10.0 miNNW (330°)8.1 mph21.9 mphMostly Cloudy
12:35 PM37.4 °F19.4 °F48 %29.88 in10.0 miNW (320°)13.8 mph21.9 mphMostly Cloudy
12:56 PM33.8 °F23.0 °F65 %29.90 in1.8 miNW (320°)15.0 mph25.3 mphSnowLight Snow
1:16 PM32.0 °F23.0 °F69 %29.89 in10.0 miCalmMostly Cloudy
1:56 PM35.6 °F23.0 °F60 %29.88 in10.0 miNorth (350°)23.0 mph31.1 mphScattered Clouds
2:16 PM33.8 °F17.6 °F52 %29.90 in5.0 miNW (320°)24.2 mph32.2 mphSnowLight Snow
2:36 PM32.0 °F19.4 °F60 %29.92 in7.0 miNNW (340°)20.7 mph27.6 mphSnowLight Snow
3:16 PM35.6 °F14.0 °F41 %29.92 in10.0 miNW (310°)21.9 mph29.9 mphMostly Cloudy
3:36 PM37.4 °F14.0 °F38 %29.91 in10.0 miNW (320°)17.3 mph27.6 mphClear
3:55 PM39.2 °F8.6 °F28 %29.91 in10.0 miNW (320°)19.6 mph26.5 mphClear
4:16 PM41.0 °F3.2 °F21 %29.91 in10.0 miNW (320°)19.6 mph31.1 mphClear
4:36 PM35.6 °F12.2 °F38 %29.93 in10.0 miNorth (350°)24.2 mph36.8 mphMostly Cloudy
4:56 PM37.4 °F12.2 °F36 %29.94 in10.0 miWNW (300°)18.4 mph28.8 mphOvercast
5:16 PM37.4 °F10.4 °F33 %29.96 in10.0 miNW (320°)20.7 mph29.9 mphScattered Clouds
5:35 PM35.6 °F12.2 °F38 %29.98 in10.0 miNW (320°)21.9 mph32.2 mphScattered Clouds
5:55 PM37.4 °F10.4 °F33 %29.98 in10.0 miWNW (300°)15.0 mph21.9 mphScattered Clouds
6:16 PM35.6 °F10.4 °F35 %30.00 in10.0 miNW (310°)16.1 mph23.0 mphScattered Clouds
6:36 PM35.6 °F12.2 °F38 %29.99 in10.0 miNW (310°)10.4 mph18.4 mphScattered Clouds
6:56 PM33.8 °F14.0 °F44 %30.02 in10.0 miNW (320°)15.0 mph24.2 mphMostly Cloudy
7:16 PM33.8 °F12.2 °F41 %30.01 in10.0 miNW (320°)4.6 mphMostly Cloudy
7:36 PM33.8 °F10.4 °F38 %30.01 in10.0 miCalmScattered Clouds
7:55 PM33.8 °F5.0 °F30 %30.02 in10.0 miWNW (300°)6.9 mphScattered Clouds
8:16 PM33.8 °F6.8 °F32 %30.04 in10.0 miWNW (300°)8.1 mph16.1 mphOvercast
8:36 PM33.8 °F8.6 °F35 %30.05 in10.0 miNW (320°)12.7 mph18.4 mphOvercast
8:55 PM32.0 °F19.4 °F60 %30.08 in10.0 miNNW (340°)11.5 mphOvercast
9:16 PM30.2 °F21.2 °F69 %30.09 in10.0 miNorth (350°)4.6 mphOvercast
9:36 PM30.2 °F21.2 °F69 %30.10 in10.0 miNNW (340°)4.6 mphOvercast
9:56 PM30.2 °F21.2 °F69 %30.11 in10.0 miNW (310°)5.8 mphMostly Cloudy
10:16 PM30.2 °F21.2 °F69 %30.11 in10.0 miWest (270°)3.5 mphOvercast
10:35 PM30.2 °F21.2 °F69 %30.11 in10.0 miCalmOvercast
10:56 PM30.2 °F21.2 °F69 %30.11 in10.0 miCalmOvercast
11:15 PM30.2 °F19.4 °F64 %30.11 in10.0 miSW (220°)4.6 mphOvercast
11:36 PM30.2 °F19.4 °F64 %30.12 in10.0 miCalmOvercast
11:56 PM32.0 °F19.4 °F60 %30.12 in10.0 miCalmOvercast
Hourly data recorded from K20V, located miles away from Granby, Colorado







STORIES FROM OUR PARTNERS